Flag Weather past 2 weeks in Paderborn, North Rhine-Westphalia, Germany

Now
37 °F

Passing clouds.


Feels Like: 33 °F
Forecast: 35 / 49 °F
Wind: 6 mph from Southeast

Location: Paderborn / Lippstadt

Current Time: Nov 21, 2014 at 7:15:42 PM

Latest Report: Nov 21, 2014 at 6:50 PM


Visibility: N/A

Pressure: 30.18 "Hg

Humidity: 93%

Dew point: 36 °F

Location of PaderbornLocation

Historic Weather in Paderborn — Graph

°F

Paderborn temperature yesterday

Maximum temperature yesterday: 43 °F (at 6:50 AM)
Minimum temperature yesterday: 37 °F (at 10:50 PM)
Average temperature yesterday: 41 °F

Past Weeks' High & Low Weather Summary

 TemperatureHumidityPressure
High57 °F (Nov 12, 11:50 AM)100% (Nov 12, 3:50 AM)30.33 "Hg (Nov 12, 3:50 AM)
Low36 °F (Nov 7, 3:20 AM)54% (Nov 8, 1:20 PM)29.50 "Hg (Nov 16, 5:50 AM)
Average46 °F87%29.84 "Hg
* Reported Nov 6 6:20 PM — Nov 21 6:20 PM, Paderborn, Weather by CustomWeather, © 2014

Note: Actual official high and low records may vary slightly from our data, if they occured in-between our weather recording intervals... More about our weather records

Advertising

Paderborn weather history for previous 24 hours

 ConditionsComfort  
Time TempWeatherWind HumidityBarometerVisibility
6:20 PM
Nov 21
37 °FPassing clouds.6 mph87%30.18 "HgN/A
5:20 PM41 °FPassing clouds.7 mph76%30.18 "HgN/A
4:50 PM41 °FPassing clouds.8 mph81%30.18 "HgN/A
4:20 PM43 °FPartly sunny.9 mph76%30.18 "HgN/A
3:50 PM43 °FPartly sunny.8 mph81%30.18 "HgN/A
3:20 PM43 °FPartly sunny.9 mph76%30.18 "HgN/A
2:50 PM43 °FScattered clouds.10 mph76%30.18 "HgN/A
2:20 PM43 °FScattered clouds.9 mph76%30.18 "HgN/A
1:50 PM43 °FPassing clouds.9 mph76%30.21 "HgN/A
1:20 PM43 °FPassing clouds.9 mph76%30.21 "HgN/A
12:50 PM43 °FPassing clouds.10 mph81%30.21 "HgN/A
12:20 PM43 °FPassing clouds.12 mph81%30.24 "HgN/A
11:50 AM43 °FPassing clouds.10 mph81%30.24 "Hg6 mi
11:20 AM41 °FScattered clouds.9 mph93%30.24 "Hg6 mi
10:50 AM43 °FScattered clouds.8 mph87%30.24 "Hg6 mi
10:20 AM39 °FScattered clouds.7 mph100%30.24 "Hg5 mi
9:50 AM39 °FScattered clouds.7 mph93%30.24 "Hg5 mi
9:20 AM37 °FScattered clouds.6 mph100%30.24 "HgN/A
8:50 AM36 °FPassing clouds.7 mph100%30.24 "HgN/A
8:20 AM36 °FPassing clouds.6 mph93%30.27 "HgN/A
7:50 AM37 °FPassing clouds.6 mph100%30.24 "HgN/A
7:20 AM37 °FPassing clouds.7 mph100%30.24 "HgN/A
6:50 AM39 °FPassing clouds.7 mph93%30.24 "HgN/A
6:20 AM39 °FPassing clouds.7 mph93%30.24 "HgN/A
5:50 AM39 °FPassing clouds.5 mph93%30.24 "HgN/A
5:20 AM37 °FPassing clouds.3 mph93%30.27 "HgN/A
4:50 AM37 °FPassing clouds.3 mph93%30.27 "HgN/A
4:20 AM37 °FPassing clouds.5 mph93%30.27 "HgN/A
3:50 AM39 °FPartly cloudy.3 mph93%30.27 "HgN/A
3:20 AM39 °FPartly cloudy.8 mph93%30.27 "HgN/A
2:50 AM39 °FPartly cloudy.7 mph93%30.27 "HgN/A
2:20 AM39 °FPartly cloudy.7 mph100%30.30 "HgN/A
1:50 AM39 °FPartly cloudy.5 mph100%30.30 "HgN/A
1:20 AM39 °FPartly cloudy.5 mph93%30.30 "HgN/A
12:50 AM39 °FPartly cloudy.5 mph93%30.30 "HgN/A
12:20 AM37 °FPassing clouds.6 mph100%30.30 "HgN/A
11:50 PM
Nov 20
37 °FPassing clouds.5 mph100%30.30 "HgN/A
11:20 PM37 °FPassing clouds.6 mph100%30.33 "HgN/A
10:50 PM37 °FPassing clouds.6 mph100%30.33 "HgN/A
10:20 PM39 °FPassing clouds.5 mph93%30.33 "HgN/A
9:50 PM39 °FPassing clouds.5 mph87%30.33 "HgN/A
9:20 PM39 °FPassing clouds.7 mph87%30.33 "HgN/A
8:50 PM39 °FPassing clouds.6 mph87%30.33 "HgN/A
8:20 PM39 °FPassing clouds.6 mph87%30.33 "HgN/A
7:50 PM39 °FPassing clouds.7 mph87%30.33 "HgN/A
7:20 PM39 °FPassing clouds.6 mph87%30.33 "HgN/A
Weather by CustomWeather, © 2014

See weather overviewHow to use our weather pages